"Pseudo-MPEC" for C1HCQ92
Created 2019 Dec 7 7:07:08 UT using Find_Orb
Click here for an explanation of pseudo-MPECs
Astrometry: C1HCQ92 C2019 12 02.27203 04 20 46.91 +30 53 03.7 ~C27M 20.2 GVNEOCPG96 C1HCQ92 C2019 12 02.27723 04 20 55.14 +30 53 11.4 ~C27M 20.1 GVNEOCPG96 C1HCQ92 C2019 12 02.28241 04 21 03.64 +30 53 17.7 ~C27M 19.9 GVNEOCPG96 Station data: (G96) Mt. Lemmon Survey (N32.442754 W110.788720) US/Arizona. Observers T. A. Pruyne, B. M. Africano, E. J. Christensen, G. A. Farneth, D. C. Fuls, A. R. Gibbs, A. D. Grauer, H. Gröller, J. A. Johnson, R. A. Kowalski, S. M. Larson, G. J. Leonard, D. Rankin, R. L. Seaman, F. C. Shelly. 1.5-m reflector + 10K CCD. Orbital elements: C1HCQ92 Perigee 2019 Nov 26.547541 +/- 34 TT = 13:08:27 (JD 2458814.047541) Epoch 2019 Dec 2.0 TT = JDT 2458819.5 AutoNEOCP M 86.71936344 +/- 18 (J2000 equator) n 15.90463267 +/- 0.399 Peri. 314.24720 +/- 80 a338003.406 +/- 4.75e+7 Node 336.55636 +/- 70 e 0.4224072 +/- 0.242 Incl. 30.91876 +/- 1.9 P 22.63d H 32.7 G 0.15 U 12.1 SR q 195228.323 +/- 2.05e+7 Q 480778.489 +/- 6.43e+9 From 3 observations 2019 Dec. 2 (14.9 min); mean residual 0".71
Residuals in arcseconds: 191202 G96 .71+ .04+ 191202 G96 1.4- .08- 191202 G96 .71+ .04+ Ephemerides (geocentric): Date (UTC) HH RA Dec delta r elong mag " sig PA ---- -- -- -- ------------- ----------- ------ ------ ----- --- ---- --- 2019 12 07 07 07 23 58.844 +23 07 09.31 484005 .98786 145.3 21.7 62d 23 2019 12 07 08 07 25 10.383 +23 00 46.36 484192 .98784 145.1 21.7 62d 23 2019 12 07 09 07 26 21.754 +22 54 21.71 484370 .98783 144.8 21.7 62d 23 2019 12 07 10 07 27 32.958 +22 47 55.35 484539 .98782 144.6 21.7 62d 23 2019 12 07 11 07 28 43.999 +22 41 27.30 484699 .98781 144.4 21.7 62d 23 2019 12 07 12 07 29 54.881 +22 34 57.56 484850 .98779 144.1 21.7 62d 23 2019 12 07 13 07 31 05.607 +22 28 26.13 484992 .98778 143.9 21.7 62d 23 2019 12 07 14 07 32 16.179 +22 21 53.01 485125 .98777 143.6 21.7 62d 23 2019 12 07 15 07 33 26.601 +22 15 18.21 485248 .98775 143.4 21.7 62d 23 2019 12 07 16 07 34 36.875 +22 08 41.72 485362 .98774 143.2 21.8 62d 23 2019 12 07 17 07 35 47.005 +22 02 03.55 485468 .98773 142.9 21.8 63d 23 2019 12 07 18 07 36 56.995 +21 55 23.69 485564 .98771 142.7 21.8 63d 23 2019 12 07 19 07 38 06.846 +21 48 42.16 485650 .98770 142.4 21.8 63d 23 2019 12 07 20 07 39 16.562 +21 41 58.94 485728 .98769 142.2 21.8 63d 23 2019 12 07 21 07 40 26.146 +21 35 14.05 485797 .98767 141.9 21.8 63d 23 2019 12 07 22 07 41 35.601 +21 28 27.47 485856 .98766 141.7 21.8 63d 23 2019 12 07 23 07 42 44.930 +21 21 39.22 485906 .98764 141.5 21.8 63d 23 2019 12 08 00 07 43 54.136 +21 14 49.28 485947 .98763 141.2 21.8 63d 23 2019 12 08 01 07 45 03.222 +21 07 57.66 485979 .98762 141.0 21.8 63d 23 2019 12 08 02 07 46 12.190 +21 01 04.36 486001 .98760 140.7 21.8 63d 23 2019 12 08 03 07 47 21.045 +20 54 09.37 486014 .98759 140.5 21.8 63d 23 2019 12 08 04 07 48 29.789 +20 47 12.69 486018 .98757 140.2 21.8 63d 23 2019 12 08 05 07 49 38.424 +20 40 14.32 486013 .98756 140.0 21.8 63d 23 2019 12 08 06 07 50 46.955 +20 33 14.26 485999 .98754 139.8 21.8 63d 23 2019 12 08 07 07 51 55.383 +20 26 12.51 485975 .98753 139.5 21.9 63d 23 2019 12 08 08 07 53 03.712 +20 19 09.05 485943 .98751 139.3 21.9 63d 23 2019 12 08 09 07 54 11.944 +20 12 03.90 485900 .98750 139.0 21.9 63d 23 2019 12 08 10 07 55 20.084 +20 04 57.04 485849 .98748 138.8 21.9 64d 23 2019 12 08 11 07 56 28.132 +19 57 48.47 485789 .98747 138.6 21.9 64d 23 2019 12 08 12 07 57 36.094 +19 50 38.19 485719 .98745 138.3 21.9 64d 23 2019 12 08 13 07 58 43.971 +19 43 26.19 485640 .98744 138.1 21.9 64d 23 2019 12 08 14 07 59 51.766 +19 36 12.47 485551 .98742 137.8 21.9 64d 23 2019 12 08 15 08 00 59.482 +19 28 57.02 485453 .98741 137.6 21.9 64d 23 2019 12 08 16 08 02 07.123 +19 21 39.83 485346 .98739 137.3 21.9 64d 23 2019 12 08 17 08 03 14.691 +19 14 20.91 485230 .98738 137.1 21.9 64d 23 2019 12 08 18 08 04 22.189 +19 07 00.24 485104 .98736 136.8 21.9 64d 23 2019 12 08 19 08 05 29.621 +18 59 37.83 484969 .98735 136.6 21.9 64d 23 2019 12 08 20 08 06 36.988 +18 52 13.65 484825 .98733 136.4 21.9 64d 23 2019 12 08 21 08 07 44.295 +18 44 47.71 484672 .98731 136.1 21.9 64d 23 2019 12 08 22 08 08 51.543 +18 37 20.00 484509 .98730 135.9 21.9 64d 23 2019 12 08 23 08 09 58.736 +18 29 50.51 484336 .98728 135.6 22.0 64d 23 2019 12 09 00 08 11 05.877 +18 22 19.23 484155 .98727 135.4 22.0 64d 23 2019 12 09 01 08 12 12.969 +18 14 46.16 483963 .98725 135.1 22.0 64d 23 2019 12 09 02 08 13 20.015 +18 07 11.29 483763 .98723 134.9 22.0 64d 23 2019 12 09 03 08 14 27.018 +17 59 34.61 483553 .98722 134.6 22.0 64d 23 2019 12 09 04 08 15 33.980 +17 51 56.10 483334 .98720 134.4 22.0 64d 23 2019 12 09 05 08 16 40.905 +17 44 15.77 483105 .98718 134.1 22.0 65d 23 2019 12 09 06 08 17 47.796 +17 36 33.60 482867 .98717 133.9 22.0 65d 23